Location: ????????
(55.6189°N, 38.3031°E)
Time: 12:22:16
(UTC+00:00)

SL-16 R/B - Pass Details

Date: 27 February 2020
Orbit: 843 x 847 km, 71.0° (Epoch: 05 April)

Event Time Altitude Azimuth Distance (km) Brightness Sun altitude
Exits shadow 00:44:35 61° 17° (NNE) 956 2.5 -30.7°
Drops below altitude 10° 00:49:18 10° 33° (NNE) 2,477 5.4 -30.1°
Sets 00:51:45 0° 35° (NE) 3,415 6.3 -29.8°
